CYGFM02

Last updated on Wed Sep 17 2025 00:02:22 GMT+0000 (Coordinated Universal Time)

1 41886U 16078C 25259.30696258 .00043996 00000+0 85861-3 0 9992 2 41886 34.9430 232.7479 0008332 117.9052 242.2513 15.46391574486504
UTC large
Height (km)
Speed (km/s)
/
Latitude / Longitude
Inclination (degrees)
Orbital Period (minutes)
Azimuth
Elevation
Range (km)
Doppler Factor

Next 0 passes for location: London (51.5072 / 0.1276)

Sorry there are no passes over London.